Oujda, Morocco

3:51 AM WET on February 06, 2016 (GMT +0000)
Angads

Weather History for GMFO - December, 2012

Change the Weather History Date:

Tuesday, December 4, 2012

  Actual Average Record
Temperature  
Mean Temperature 46 °F -  
Max Temperature 57 °F 60 °F 68 °F (2005)
Min Temperature 35 °F 41 °F 35 °F (2012)
Degree Days  
Heating Degree Days 19    
Moisture  
Dew Point 37 °F    
Average Humidity 72    
Maximum Humidity 87    
Minimum Humidity 44    
Precipitation  
Precipitation 0.00 in 0.06 in - ()
Sea Level Pressure  
Sea Level Pressure 30.35 in    
Wind  
Wind Speed 10 mph ()    
Max Wind Speed 21 mph    
Max Gust Speed -    
Visibility 9.3 miles    
Events      
Averages and records for this station are not official NWS values.
T = Trace of Precipitation, MM = Missing Value Source: Averaged Metar Reports

Daily Weather History Graph

Daily Weather History Graph

Search for Another Location

Airport or City:

Trip Planner

Search our weather history database for the weather conditions in past years. The results will help you decide how hot, cold, wet, or windy it might be!

Date:

Astronomy

Dec. 04, 2012 Rise Set
Actual Time 6:59 AM WET 4:56 PM WET
Civil Twilight 6:31 AM WET 5:24 PM WET
Nautical Twilight 6:00 AM WET 5:55 PM WET
Astronomical Twilight 5:29 AM WET 6:26 PM WET
Moon 10:20 PM WET (12/4) 10:53 AM WET (12/4)
Length of Visible Light 10h 52m
Length of Day
9h 56m
Waning Gibbous, 71% of the Moon is Illuminated
Dec 4
Waning Gibbous
Dec 6
Last Quarter
Dec 13
New
Dec 20
First Quarter
Dec 28
Full

Hourly Weather History & Observations

Time (WET) Temp. Windchill Dew Point Humidity Pressure Visibility Wind Dir Wind Speed Gust Speed Precip Events Conditions
12:00 AM 39 °F - 35 °F 78% 30.44 in 6 mi WSW 5.8 mph - -  
12:00 AM 39.2 °F 35.0 °F 33.8 °F 81% 30.39 in - WSW 5.8 mph - N/A   Clear
1:00 AM 39.2 °F 34.2 °F 33.8 °F 81% 30.33 in - SW 6.9 mph - N/A   Clear
2:00 AM 41.0 °F 33.5 °F 35.6 °F 81% 30.33 in - SW 13.8 mph - N/A   Clear
3:00 AM 40 °F - 33 °F 68% 30.42 in - SW 11.5 mph - -  
3:00 AM 41.0 °F 34.3 °F 35.6 °F 81% 30.33 in - SW 11.5 mph - N/A   Clear
4:00 AM 41.0 °F 33.5 °F 37.4 °F 87% 30.36 in - SW 13.8 mph - N/A   Clear
5:00 AM 41.0 °F 32.8 °F 33.8 °F 76% 30.36 in - SW 16.1 mph - N/A   Clear
6:00 AM 42 °F - 34 °F 64% 30.40 in 12 mi SW 11.5 mph - -  
6:00 AM 41.0 °F 33.5 °F 33.8 °F 76% 30.36 in - SW 13.8 mph - N/A   Clear
8:00 AM 44.6 °F 36.9 °F 37.4 °F 76% 30.36 in - SW 18.4 mph - N/A   Clear
9:00 AM 47 °F - 38 °F 63% 30.40 in 16 mi WSW 15.0 mph - -  
9:00 AM 46.4 °F 40.1 °F 39.2 °F 76% 30.36 in - WSW 15.0 mph - N/A   Clear
10:00 AM 50.0 °F - 39.2 °F 66% 30.36 in - SW 20.7 mph - N/A   Clear
12:00 PM 56 °F - 40 °F 44% 30.32 in 16 mi SW 18.4 mph - -  
12:00 PM 57.2 °F - 41.0 °F 55% 30.30 in - SW 18.4 mph - N/A   Clear
6:00 PM 51.8 °F - 41.0 °F 67% 30.30 in 6.2 mi NW 8.1 mph - N/A   Partly Cloudy
7:00 PM 50.0 °F - 39.2 °F 66% 30.30 in 6.2 mi West 4.6 mph - N/A   Partly Cloudy
9:00 PM 48 °F - 40 °F 66% 30.34 in 12 mi SW 15.0 mph - -   Scattered Clouds
9:00 PM 48.2 °F - 41.0 °F 76% 30.30 in 6.2 mi SW 15.0 mph - N/A   Partly Cloudy
10:00 PM 46.4 °F 40.4 °F 41.0 °F 81% 30.30 in 6.2 mi SW 13.8 mph - N/A   Partly Cloudy
11:00 PM 46.4 °F 39.2 °F 39.2 °F 76% 30.27 in 6.2 mi SW 18.4 mph - N/A   Mostly Cloudy